INTELSAT 25 (IS-25)

Last updated on Thu Oct 30 2025 00:02:48 GMT+0000 (Coordinated Universal Time)

1 33153U 08034A 25302.46483766 -.00000212 00000+0 00000+0 0 9990 2 33153 2.1083 83.1592 0004717 155.2652 295.5122 1.00272213 63388
UTC large
Height (km)
Speed (km/s)
/
Latitude / Longitude
Inclination (degrees)
Orbital Period (minutes)
Azimuth
Elevation
Range (km)
Doppler Factor

Next 0 passes for location: London (51.5072 / 0.1276)

Sorry there are no passes over London.